Content
SEND FEEDBACK

Daily
Averages
Monthly
Summary
United States of America

UNION SPRINGS, ALABAMA


Home > North America > United States > Alabama
Elevation: 440 feet     Latitude: 32 01N     Longitude: 085 45W

WEATHER
 
SELECT A DAY
Number of Records: 181,926;   Date Range: 1/3/95 - 10/24/14
 
SHARE

PRINT THIS DATA

[ ← Previous Day ]
WEATHER ALMANAC - JANUARY 31, 2013
[ Next Day → ]
[ °C ]   °F
Weather ElementAverageHighLow
Temperature42.5 °F55 °F (2:53 pm)33.1 °F (9:53 pm)
Dewpoint27.5 °F34 °F (6:53 pm)21.9 °F (12:53 pm)
Humidity59.8 %92 % (9:53 pm)29 % (2:53 pm)
Barometer30.20 in30.29 in (11:53 pm)30.07 in (1:53 am)
Wind Speed6.3 mph18.4 mph (12:53 pm)
Wind Gust23 mph (8:53 am)
Weather ElementAverage
Visibility10 mi
Wind DirectionSSW (217 °)

Weather ElementTotal
Precipitation---
Heating Degree Days21 (Base 65)
Averaged from 23 records on January 31, 2013
WEATHER CONDITIONS BREAKOUT
WIND DIRECTION BREAKOUT
WEATHER BY HOUR - JANUARY 31, 2013
[ °C ]   °F
Local TimeTemperatureDewpointHumidityBarometerVisibilityWind DirectionWind SpeedGust SpeedPrecipitationEventsConditions
1:53 AM39.9 °F27.0 °F60 %30.07 in10.0 miWNW (290°)9.2 mphClear
2:53 AM39.0 °F28.0 °F65 %30.08 in10.0 miWNW (290°)6.9 mphClear
3:53 AM39.0 °F28.0 °F65 %30.11 in10.0 miWNW (290°)10.4 mphClear
4:53 AM37.0 °F27.0 °F67 %30.12 in10.0 miWNW (300°)6.9 mphClear
5:53 AM36.0 °F27.0 °F70 %30.13 in10.0 miWNW (300°)4.6 mphClear
6:53 AM34.0 °F28.0 °F79 %30.15 in10.0 miWSW (250°)3.5 mphClear
7:53 AM37.9 °F28.0 °F68 %30.18 in10.0 miWest (280°)4.6 mphClear
8:53 AM42.1 °F26.1 °F53 %30.19 in10.0 miNW (310°)11.5 mph23.0 mphClear
9:53 AM45.0 °F26.1 °F48 %30.24 in10.0 miWNW (300°)16.1 mph21.9 mphClear
10:53 AM48.9 °F25.0 °F39 %30.25 in10.0 miWNW (300°)12.7 mph18.4 mphClear
11:53 AM50.0 °F25.0 °F38 %30.23 in10.0 miWNW (300°)11.5 mph17.3 mphClear
12:53 PM52.0 °F21.9 °F31 %30.21 in10.0 miNW (310°)18.4 mph23.0 mphClear
1:53 PM53.1 °F21.9 °F30 %30.20 in10.0 miWNW (300°)10.4 mphClear
2:53 PM55.0 °F23.0 °F29 %30.19 in10.0 miNNW (340°)8.1 mphClear
3:53 PM54.0 °F23.0 °F30 %30.19 in10.0 miNW (310°)3.5 mphClear
4:53 PM51.1 °F25.0 °F36 %30.20 in10.0 miWest (280°)3.5 mphClear
5:53 PM45.0 °F28.9 °F53 %30.22 in10.0 miCalmClear
6:53 PM41.0 °F34.0 °F76 %30.24 in10.0 miCalmClear
7:53 PM37.9 °F34.0 °F86 %30.26 in10.0 miCalmClear
8:53 PM36.0 °F33.1 °F89 %30.26 in10.0 miCalmClear
9:53 PM33.1 °F30.9 °F92 %30.26 in10.0 miCalmClear
10:53 PM34.0 °F30.9 °F89 %30.28 in10.0 miCalmClear
11:53 PM36.0 °F30.9 °F82 %30.29 in10.0 miWSW (240°)3.5 mphClear
Hourly data recorded from KTOI, located miles away from Union Springs, Alabama







STORIES FROM OUR PARTNERS